Погода в Лысново

Россия / Ивановская область     56°53′19″N   40°55′10″E
темп.,
°C
ветер,
м/с
пор.,
м/с
влажн.,
%
обл.,
%
осадки,
мм/ч
давл.,
гПа
погр.,
м
9 марта, вт
вт900:00−14ссз379676 0.0 1008147
03:00−17ссз369752 0.0 1010112
06:00−19ссз359876 0.0 1012126
09:00−19ссз369467 0.0 1014247
12:00−15ссз358980 0.0 1015399
15:00−14ссз478889 0.0 1016524
18:00−17ссз3894100 0.0 1018239
21:00−19с4996100 0.1 1020294
10 марта, ср
ср1000:00−22с379795 0.0 1022173
03:00−25с369889 0.0 1023132
06:00−27с379746 0.0 1025150
09:00−25с369422 0.0 1027249
12:00−19ссз468512 0.0 1027403
15:00−15сз46817 0.0 1027519
18:00−18зсз34910 0.0 102775
21:00−20сз389620 0.0 1028161
11 марта, чт
чт1100:00−21сз339982 0.0 102966
03:00−22сз339961 0.0 103146
06:00−23зсз33980 0.0 103146
09:00−18сз36940 0.0 1032223
12:00−12сз348771 0.0 1031355
15:00−9зсз348684 0.0 1031501
18:00−13з2395100 0.0 103035
21:00−16зюз239758 0.0 103122
12 марта, пт
пт1200:00−17юз23970 0.0 103131
03:00−18юз34970 0.0 103173
06:00−19юз36940 0.0 1031114
09:00−16юз49820 0.0 1031279
12:00−11ююз59720 0.0 1030479
15:00−9ююз610740 0.0 1029640
18:00−11ююз411810 0.0 1028335
21:00−14ююз513860 0.0 1028389
13 марта, сб
сб1300:00−15ю514870 0.0 1027389
03:00−15ю514860 0.0 1026414
06:00−15ю614860 0.0 1025417
09:00−11ю7148150 0.0 1023640
12:00−8ю71392100 0.4 1022898
15:00−6ююз71291100 1.4 10201033
18:00−6ююз61393100 0.8 1019819
21:00−6ююз61391100 1.0 1019572